Datum,Zeit,Temp. I.,Temp.,Temp. Sonne,Windchill X,Diff Temp.,Feuchte I.,Feuchte,Luftdruck,Regen,Wind,Richtung,Windb�en,W0
,,�C,�C,�C,�C,�C,%,%,hPa,mm,km/h,�,km/h,B0
#Calibrate=1.000 #Regen0=0mm #Location=365/365m #Baro_correction=43hPa #Station=Nexus
,,1,2,7,8,10,17,18,133,34,35,36,45,97
01.01.2018,12:03,26.8,0.0,0.0,0.0,0.0,38,0,969.7,0.000,0.0,360,0.0,2
08.01.2018,13:39,0.0,9.1,8.3,7.9,0.0,37,59,1009.0,0.000,2.7,360,4.8,2
08.01.2018,14:39,22.8,9.1,8.4,6.9,0.0,41,59,1009.0,0.000,4.2,360,5.1,2
08.01.2018,15:39,22.1,9.1,8.1,6.2,0.0,40,59,1009.0,0.000,0.0,360,3.0,9
08.01.2018,16:31,22.2,9.1,8.3,5.9,0.0,41,59,1009.1,0.000,3.7,135,6.9,2
08.01.2018,16:38,22.1,9.1,8.5,6.0,0.0,41,59,1009.1,0.000,2.9,112,3.5,2
08.01.2018,16:43,22.0,9.5,9.1,6.0,0.0,41,57,1009.1,0.000,2.9,315,6.1,2
08.01.2018,16:48,21.9,9.9,8.6,6.0,0.0,41,59,1009.2,0.000,3.2,67,3.5,2
08.01.2018,16:53,21.8,9.4,8.3,6.0,0.0,42,62,1009.2,0.000,3.2,67,3.1,2
08.01.2018,16:58,21.7,8.9,7.9,5.9,0.0,42,64,1009.2,0.000,3.4,67,0.0,2
08.01.2018,17:03,21.8,8.4,7.5,5.8,0.0,43,66,1009.2,0.000,3.5,112,5.1,2
08.01.2018,17:08,21.8,8.2,7.5,6.0,0.0,42,66,1009.0,0.000,3.2,45,1.9,2
08.01.2018,17:13,21.7,7.9,7.2,5.8,0.0,42,68,1009.0,0.000,3.5,135,3.7,2
08.01.2018,17:18,21.6,7.7,7.1,6.0,0.0,41,68,1009.0,0.000,3.2,90,2.7,2
08.01.2018,17:23,21.6,7.5,6.9,5.8,0.0,41,69,1009.0,0.000,3.4,67,6.1,2
08.01.2018,17:28,21.5,7.5,7.0,5.9,0.0,41,69,1008.6,0.000,2.6,112,2.1,2
08.01.2018,17:33,21.5,7.3,6.8,5.8,0.0,42,71,1008.6,0.000,2.4,67,2.7,2
08.01.2018,17:38,21.5,7.2,6.7,5.6,0.0,42,71,1008.6,0.000,3.5,22,6.0,2
08.01.2018,17:43,21.5,7.1,6.6,5.6,0.0,42,71,1008.6,0.000,3.4,45,6.8,2
08.01.2018,17:48,21.6,7.1,6.6,5.7,0.0,42,72,1008.6,0.000,3.2,90,6.4,2
08.01.2018,17:53,21.6,6.9,6.5,5.6,0.0,42,72,1008.6,0.000,3.5,180,3.4,2
08.01.2018,17:58,21.6,6.9,6.5,5.7,0.0,42,73,1008.6,0.000,3.2,112,7.1,2
08.01.2018,18:03,21.6,6.8,6.4,5.7,0.0,42,73,1008.6,0.000,3.2,112,5.6,2
08.01.2018,18:08,21.5,6.8,6.4,5.5,0.0,42,73,1008.2,0.000,3.7,112,4.7,2
08.01.2018,18:13,21.5,6.8,6.4,5.6,0.0,42,74,1008.2,0.000,3.5,180,0.0,2
08.01.2018,18:18,21.5,6.7,6.4,5.7,0.0,42,74,1008.2,0.000,2.6,90,6.1,2
08.01.2018,18:23,21.4,6.7,6.4,5.8,0.0,42,74,1008.2,0.000,3.1,135,5.6,2
08.01.2018,18:28,21.4,6.8,6.3,5.4,0.0,42,74,1008.2,0.000,3.9,67,4.8,2
08.01.2018,18:33,21.4,6.9,6.4,5.3,0.0,42,74,1008.2,0.000,4.5,112,7.6,2
08.01.2018,18:38,21.4,6.9,6.4,5.4,0.0,42,75,1008.2,0.000,4.2,112,3.1,2
08.01.2018,18:43,21.4,6.8,6.3,5.3,0.0,42,74,1008.2,0.000,4.0,112,6.1,2
08.01.2018,18:48,21.4,6.8,6.4,5.7,0.0,42,74,1008.1,0.000,3.4,67,3.7,2
08.01.2018,18:53,21.4,6.8,6.5,5.8,0.0,42,73,1008.1,0.000,2.6,135,2.7,2
08.01.2018,18:58,21.4,6.8,6.5,5.8,0.0,42,74,1008.1,0.000,2.6,270,6.1,2
08.01.2018,19:03,21.4,6.9,6.5,5.8,0.0,42,73,1008.1,0.000,2.6,112,0.0,2
08.01.2018,19:08,21.4,6.9,6.5,5.7,0.0,42,73,1008.4,0.000,1.9,112,2.4,2
08.01.2018,19:13,21.4,6.9,6.5,5.7,0.0,42,74,1008.4,0.000,1.6,67,4.8,2
08.01.2018,19:18,21.4,6.9,6.5,5.7,0.0,42,74,1008.4,0.000,2.1,45,2.1,2
08.01.2018,19:23,21.2,6.9,6.5,5.7,0.0,42,74,1008.4,0.000,1.9,202,0.0,2
08.01.2018,19:28,21.4,6.9,6.5,5.7,0.0,42,74,1008.4,0.000,1.8,135,4.3,2
08.01.2018,19:33,21.4,6.9,6.5,5.7,0.0,43,74,1008.4,0.000,1.8,112,3.4,2
08.01.2018,19:38,21.4,6.8,6.4,5.7,0.0,43,75,1008.4,0.000,2.3,135,5.3,2
08.01.2018,19:43,21.4,6.8,6.4,5.7,0.0,43,75,1008.4,0.000,2.4,225,6.1,2
08.01.2018,19:48,21.5,6.8,6.4,5.7,0.0,43,74,1008.4,0.000,2.3,112,0.0,2
08.01.2018,19:53,21.5,6.7,6.3,5.6,0.0,43,74,1008.4,0.000,1.1,112,0.0,2
08.01.2018,19:58,21.4,6.7,6.3,5.6,0.0,43,74,1008.4,0.000,0.8,67,1.8,2
08.01.2018,20:03,21.4,6.7,6.4,5.7,0.0,43,74,1008.4,0.000,2.1,135,2.6,2
08.01.2018,20:08,21.4,6.7,6.6,5.7,0.0,43,75,1008.4,0.000,2.1,112,2.6,2
08.01.2018,20:13,21.4,6.7,6.5,5.7,0.0,44,74,1008.4,0.000,0.6,270,0.0,2
08.01.2018,20:18,21.4,6.7,6.3,5.6,0.0,44,75,1008.4,0.000,1.1,90,3.4,2
08.01.2018,20:23,21.4,6.6,6.3,5.6,0.0,44,75,1008.4,0.000,1.8,135,2.1,2
08.01.2018,20:28,21.4,6.5,6.1,5.4,0.0,44,76,1008.2,0.000,1.9,67,3.1,2
08.01.2018,20:33,21.4,6.4,6.1,5.4,0.0,44,76,1008.2,0.000,2.9,135,2.4,2
08.01.2018,20:38,21.4,6.4,6.0,5.1,0.0,44,77,1008.2,0.000,3.9,112,0.0,2
08.01.2018,20:43,21.4,6.3,6.0,5.4,0.0,44,77,1008.2,0.000,2.3,135,3.5,2
08.01.2018,20:48,21.4,6.3,6.0,5.3,0.0,44,78,1008.0,0.000,1.6,135,3.4,2
08.01.2018,20:53,21.4,6.1,5.8,5.2,0.0,44,77,1008.0,0.000,2.3,135,3.7,2
08.01.2018,20:58,21.4,6.0,5.7,5.2,0.0,44,78,1008.0,0.000,3.1,135,3.9,2
08.01.2018,21:03,21.4,5.9,5.6,5.1,0.0,44,78,1008.0,0.000,2.9,315,2.6,2
08.01.2018,21:08,21.4,5.9,5.6,4.9,0.0,44,78,1007.8,0.000,2.7,135,5.5,2
08.01.2018,21:13,21.4,5.7,5.4,4.7,0.0,44,78,1007.8,0.000,1.9,157,6.4,2
08.01.2018,21:18,21.2,5.7,5.4,4.7,0.0,44,79,1007.8,0.000,2.6,337,4.0,2
08.01.2018,21:23,21.4,5.7,5.2,4.3,0.0,44,79,1007.8,0.000,3.7,112,5.6,2
08.01.2018,21:28,21.4,5.6,5.3,4.7,0.0,44,80,1007.6,0.000,3.1,135,2.1,2
08.01.2018,21:33,21.4,5.6,5.3,4.6,0.0,44,80,1007.6,0.000,2.9,157,5.5,2
08.01.2018,21:38,21.4,5.6,5.3,4.6,0.0,44,80,1007.6,0.000,2.6,112,2.6,2
08.01.2018,21:43,21.4,5.5,5.2,4.5,0.0,44,80,1007.6,0.000,2.6,157,8.9,2
08.01.2018,21:48,21.4,5.5,5.2,4.5,0.0,44,79,1007.5,0.000,2.3,202,0.0,2
08.01.2018,21:53,21.4,5.5,5.1,4.4,0.0,44,79,1007.5,0.000,1.1,22,0.0,2
08.01.2018,21:58,21.4,5.4,5.0,4.3,0.0,44,79,1007.5,0.000,0.5,22,0.0,2
08.01.2018,22:03,21.5,5.3,4.9,4.1,0.0,44,80,1007.5,0.000,0.8,90,2.3,2
08.01.2018,22:08,21.5,5.3,4.9,4.0,0.0,44,80,1007.0,0.000,1.4,67,4.0,3
08.01.2018,22:13,21.5,5.2,4.8,4.1,0.0,44,80,1007.0,0.000,2.3,90,3.1,3
08.01.2018,22:18,21.6,5.2,4.8,4.0,0.0,44,81,1007.0,0.000,2.1,157,0.0,3
08.01.2018,22:23,21.6,5.1,4.7,3.8,0.0,44,81,1007.0,0.000,1.0,337,0.0,3
08.01.2018,22:28,21.6,5.1,4.7,3.8,0.0,44,81,1007.3,0.000,0.6,112,0.0,3
08.01.2018,22:33,21.6,5.0,4.6,3.7,0.0,44,81,1007.3,0.000,0.8,67,0.0,3
08.01.2018,22:38,21.6,5.1,4.6,3.7,0.0,44,81,1007.3,0.000,1.8,180,5.8,3
09.01.2018,05:13,20.0,5.2,5.1,5.0,0.0,44,79,1001.7,0.000,2.9,45,1.8,9
09.01.2018,05:18,20.0,5.2,5.1,4.8,0.0,44,79,1001.7,0.000,1.9,135,8.0,9
09.01.2018,05:23,20.0,5.3,5.2,5.1,0.0,44,79,1001.7,0.000,3.1,90,4.3,9
09.01.2018,05:28,20.0,5.4,5.2,4.8,0.0,44,78,1001.4,0.000,3.4,67,3.1,9
09.01.2018,05:33,20.0,5.6,5.5,5.2,0.0,44,78,1001.4,0.000,3.2,112,3.1,9
09.01.2018,05:38,20.0,5.6,5.3,4.8,0.0,44,78,1001.4,0.000,4.2,112,16.3,9
09.01.2018,05:43,20.0,5.9,5.5,4.8,0.0,44,77,1001.4,0.000,5.3,112,10.3,9
09.01.2018,05:48,20.0,5.9,5.5,4.7,0.0,44,77,1001.4,0.000,6.0,67,11.6,9
09.01.2018,05:53,20.0,5.9,5.5,4.6,0.0,44,78,1001.4,0.000,6.6,135,10.3,9
09.01.2018,05:58,20.0,6.0,5.5,4.4,0.0,44,76,1001.4,0.000,7.4,22,4.8,9
09.01.2018,06:03,20.0,6.0,5.5,4.4,0.0,44,77,1001.4,0.000,7.6,112,6.0,9
09.01.2018,06:08,20.0,6.1,5.6,4.6,0.0,44,76,1000.8,0.000,6.8,135,6.8,9
09.01.2018,06:13,19.9,6.2,5.7,4.8,0.0,44,76,1000.8,0.000,6.4,135,12.4,9
09.01.2018,06:18,19.9,6.3,5.8,4.9,0.0,44,76,1000.8,0.000,6.8,67,8.9,9
09.01.2018,06:23,19.9,6.2,5.8,5.1,0.0,44,75,1000.8,0.000,6.0,112,6.4,9
09.01.2018,06:28,19.9,6.1,6.0,5.7,0.0,44,75,1000.8,0.000,4.2,135,10.8,9
09.01.2018,06:33,19.9,6.1,6.0,5.8,0.0,44,74,1000.8,0.000,2.1,67,4.8,9
09.01.2018,06:38,19.9,6.1,6.0,5.8,0.0,44,75,1000.8,0.000,1.9,67,0.0,9
09.01.2018,06:43,19.9,6.3,6.3,6.2,0.0,44,74,1000.8,0.000,2.3,45,0.0,9
09.01.2018,06:48,19.9,6.3,6.3,6.3,0.0,44,74,1001.5,0.000,2.3,315,11.9,9
09.01.2018,06:53,19.9,6.0,5.9,5.7,0.0,44,75,1001.5,0.000,2.4,135,1.6,9
09.01.2018,06:58,19.9,5.9,5.7,5.3,0.0,44,75,1001.5,0.000,2.6,270,2.4,9
09.01.2018,07:03,19.9,5.8,5.6,5.1,0.0,44,76,1001.5,0.000,2.3,157,4.5,9
09.01.2018,07:08,20.0,5.7,5.5,5.0,0.0,45,76,1002.3,0.000,2.9,157,5.3,9
09.01.2018,07:13,20.1,5.6,5.4,4.9,0.0,45,77,1002.3,0.000,2.1,225,2.3,9
09.01.2018,07:18,20.2,5.7,5.4,4.9,0.0,45,77,1002.3,0.000,1.8,270,2.4,9
09.01.2018,07:23,20.4,5.5,5.2,4.7,0.0,45,78,1002.3,0.000,2.1,135,6.1,9
09.01.2018,07:28,20.4,5.5,5.2,4.6,0.0,45,78,1002.6,0.000,2.1,135,0.0,9
09.01.2018,07:33,20.5,5.5,5.2,4.5,0.0,44,78,1002.6,0.000,2.4,135,3.2,9
09.01.2018,07:38,20.5,5.5,5.2,4.5,0.0,44,78,1002.6,0.000,1.6,90,2.1,9
09.01.2018,07:43,20.6,5.4,5.1,4.5,0.0,44,78,1002.6,0.000,1.3,202,1.9,9
09.01.2018,07:48,20.6,5.4,5.1,4.4,0.0,44,78,1002.5,0.000,1.0,270,1.9,2
09.01.2018,07:53,20.7,5.4,5.0,4.3,0.0,44,78,1002.5,0.000,0.2,135,0.0,2
09.01.2018,07:58,20.7,5.4,5.0,4.1,0.0,44,78,1002.5,0.000,0.2,135,0.0,2
09.01.2018,08:03,20.8,5.4,5.0,4.2,0.0,44,78,1002.5,0.000,0.2,337,1.6,2
09.01.2018,08:08,20.8,5.4,5.0,4.3,0.0,45,79,1002.4,0.000,0.3,112,0.0,2
09.01.2018,08:13,20.8,5.4,5.0,4.3,0.0,45,79,1002.4,0.000,0.2,22,0.0,2
09.01.2018,08:18,20.8,5.4,5.0,4.3,0.0,45,79,1002.4,0.000,0.0,22,0.0,2
09.01.2018,08:23,20.8,5.4,5.0,4.3,0.0,45,79,1002.4,0.000,0.2,135,0.0,2
09.01.2018,08:28,20.9,5.4,5.0,4.3,0.0,45,79,1002.4,0.000,0.2,135,0.0,2
09.01.2018,08:33,20.9,5.4,5.0,4.2,0.0,45,79,1002.4,0.000,0.0,315,0.0,2
09.01.2018,08:38,20.9,5.5,5.1,4.2,0.0,45,79,1002.4,0.000,0.0,247,0.0,2
09.01.2018,08:43,20.8,5.5,5.1,4.2,0.0,45,79,1002.4,0.000,0.0,135,0.0,2
09.01.2018,08:48,20.8,5.5,5.1,4.2,0.0,45,79,1002.2,0.000,0.2,90,2.7,2
09.01.2018,08:53,20.8,5.5,5.1,4.4,0.0,45,79,1002.2,0.000,0.5,67,0.0,2
09.01.2018,08:58,20.9,5.5,5.1,4.4,0.0,45,79,1002.2,0.000,0.3,180,0.0,2
09.01.2018,09:03,20.9,5.6,5.2,4.4,0.0,45,79,1002.2,0.000,0.0,157,0.0,2
09.01.2018,09:08,20.9,5.6,5.2,4.4,0.0,45,79,1002.6,0.000,0.0,360,0.0,2
09.01.2018,09:13,21.0,5.6,5.2,4.5,0.0,45,78,1002.6,0.000,0.0,247,0.0,2
09.01.2018,09:18,21.0,5.7,5.3,4.5,0.0,45,78,1002.6,0.000,0.0,247,0.0,2
09.01.2018,09:23,21.0,5.8,5.4,4.5,0.0,45,78,1002.6,0.000,0.0,225,0.0,2
09.01.2018,09:28,21.0,5.9,5.5,4.6,0.0,44,78,1002.1,0.000,0.0,225,0.0,2
09.01.2018,09:33,21.0,6.0,5.7,5.0,0.0,44,78,1002.1,0.000,0.0,337,0.0,2
09.01.2018,09:38,21.0,6.2,5.9,5.3,0.0,44,78,1002.1,0.000,0.0,337,0.0,2
09.01.2018,09:43,21.0,6.4,6.2,5.9,0.0,44,78,1002.1,0.000,0.0,270,0.0,2
09.01.2018,09:48,21.0,6.7,6.8,6.8,0.0,44,78,1002.0,0.000,0.2,270,0.0,2
09.01.2018,09:53,21.0,6.8,7.6,7.6,0.0,44,77,1002.0,0.000,0.2,247,0.0,2
09.01.2018,09:58,21.1,7.0,8.3,8.3,0.0,44,77,1002.0,0.000,0.2,270,0.0,2
09.01.2018,10:03,21.1,7.1,9.2,9.2,0.0,44,77,1002.0,0.000,0.2,112,0.0,2
09.01.2018,10:08,21.1,7.0,9.2,9.2,0.0,44,76,1001.7,0.000,0.3,247,0.0,2
09.01.2018,10:13,21.1,7.1,8.7,8.7,0.0,44,76,1001.7,0.000,0.2,270,0.0,2
09.01.2018,10:18,21.1,7.1,8.4,8.4,0.0,44,75,1001.7,0.000,0.2,315,3.1,2
09.01.2018,10:23,21.1,7.1,7.8,7.8,0.0,44,75,1001.7,0.000,0.3,22,0.0,2
09.01.2018,10:28,21.1,7.1,7.6,7.6,0.0,44,75,1001.9,0.000,0.3,270,0.0,2
09.01.2018,10:33,21.1,7.1,7.1,7.1,0.0,44,75,1001.9,0.000,0.6,22,0.0,2
09.01.2018,10:38,21.1,7.2,7.2,7.1,0.0,44,76,1001.9,0.000,0.6,157,2.3,2
09.01.2018,10:43,21.1,7.3,7.2,7.0,0.0,44,75,1001.9,0.000,0.3,337,0.0,2
09.01.2018,10:48,21.1,7.4,7.3,7.1,0.0,44,75,1002.4,0.000,0.3,22,0.0,2
09.01.2018,10:53,21.2,7.5,7.4,7.2,0.0,44,75,1002.4,0.000,0.0,360,0.0,2
09.01.2018,10:58,21.2,7.5,7.4,7.2,0.0,44,75,1002.4,0.000,0.0,270,0.0,2
09.01.2018,11:03,21.2,7.6,7.5,7.3,0.0,45,75,1002.4,0.000,0.0,135,0.0,2
09.01.2018,11:08,21.2,7.7,7.6,7.4,0.0,45,75,1002.7,0.000,0.0,112,0.0,2
09.01.2018,11:13,21.2,7.8,7.7,7.4,0.0,45,75,1002.7,0.000,0.3,315,3.2,2
09.01.2018,11:18,21.2,7.9,7.8,7.5,0.0,45,74,1002.7,0.000,0.8,337,2.4,2
09.01.2018,11:23,21.4,8.0,7.9,7.8,0.0,45,74,1002.7,0.000,0.8,112,0.0,2
09.01.2018,11:28,21.4,8.2,8.4,8.4,0.0,45,74,1002.2,0.000,0.5,315,2.6,2
09.01.2018,11:33,21.4,8.4,9.2,9.2,0.0,45,73,1002.2,0.000,0.5,292,0.0,2
09.01.2018,11:38,21.4,8.6,10.8,10.8,0.0,45,73,1002.2,0.000,0.8,247,0.0,2
09.01.2018,11:43,21.2,8.8,12.9,12.9,0.0,45,72,1002.2,0.000,0.5,135,1.8,2
09.01.2018,11:48,21.2,8.9,13.7,13.7,0.0,45,72,1002.6,0.000,0.2,247,0.0,2
09.01.2018,11:53,21.2,9.1,14.8,14.8,0.0,45,71,1002.6,0.000,0.2,315,0.0,2
09.01.2018,11:58,21.2,9.1,15.3,15.3,0.0,45,71,1002.6,0.000,0.2,315,0.0,2
09.01.2018,12:03,21.4,9.1,15.5,15.5,0.0,45,70,1002.6,0.000,0.0,22,1.6,2
09.01.2018,12:08,21.4,9.3,15.3,15.3,0.0,46,70,1002.0,0.000,0.2,67,2.3,2
09.01.2018,12:13,21.4,9.5,15.4,15.4,0.0,46,69,1002.0,0.000,0.6,360,0.0,2
09.01.2018,12:18,21.4,9.5,15.1,15.1,0.0,46,69,1002.0,0.000,1.4,337,2.4,2
09.01.2018,12:23,21.5,9.6,14.8,14.8,0.0,46,69,1002.0,0.000,1.8,112,4.7,2
09.01.2018,12:28,21.5,9.6,14.9,14.9,0.0,46,69,1001.6,0.000,1.4,90,0.0,2
09.01.2018,12:33,21.6,9.7,14.8,14.8,0.0,46,68,1001.6,0.000,1.6,135,0.0,2
09.01.2018,12:38,21.6,9.7,14.0,14.0,0.0,46,69,1001.6,0.000,1.6,90,0.0,2
09.01.2018,12:43,21.6,9.7,11.9,11.9,0.0,46,69,1001.6,0.000,1.4,67,5.0,2
09.01.2018,12:48,21.5,9.7,10.8,10.8,0.0,46,69,1001.4,0.000,2.1,135,4.5,2
09.01.2018,12:53,21.5,9.7,9.9,9.9,0.0,46,70,1001.4,0.000,3.1,135,4.5,2
09.01.2018,12:58,21.5,9.6,9.6,9.5,0.0,46,70,1001.4,0.000,3.2,180,1.8,2
09.01.2018,13:03,21.5,9.7,9.5,9.1,0.0,46,69,1001.4,0.000,2.7,67,6.0,2
09.01.2018,13:08,21.5,9.6,9.4,9.0,0.0,46,69,1001.1,0.000,3.1,135,3.2,2
09.01.2018,13:13,21.5,9.8,9.5,8.9,0.0,46,69,1001.1,0.000,2.9,202,4.7,2
09.01.2018,13:18,21.5,9.8,9.5,8.9,0.0,46,70,1001.1,0.000,2.6,90,6.3,2
09.01.2018,13:23,21.5,9.7,9.4,8.9,0.0,46,70,1001.1,0.000,1.9,270,0.0,2
09.01.2018,13:28,21.5,9.9,9.5,8.8,0.0,46,69,1001.1,0.000,0.8,112,0.0,2
09.01.2018,13:33,21.5,9.9,9.5,8.8,0.0,46,69,1001.1,0.000,0.5,337,0.0,2
09.01.2018,13:38,21.5,9.9,9.6,8.9,0.0,46,69,1001.1,0.000,1.0,315,0.0,2
09.01.2018,13:43,21.4,10.0,9.7,9.0,0.0,46,69,1001.1,0.000,1.1,45,0.0,2
09.01.2018,13:48,21.5,10.1,9.7,9.0,0.0,46,69,1001.0,0.000,0.6,45,0.0,2
09.01.2018,13:53,21.5,10.1,9.8,9.2,0.0,46,69,1001.0,0.000,0.6,157,0.0,2
09.01.2018,13:58,21.5,10.1,9.8,9.2,0.0,46,69,1001.0,0.000,0.5,202,0.0,2
09.01.2018,14:03,21.5,10.3,9.9,9.2,0.0,46,69,1001.0,0.000,0.0,22,0.0,2
09.01.2018,14:08,21.5,10.3,9.9,9.2,0.0,46,68,1000.9,0.000,0.2,67,0.0,2
09.01.2018,14:13,21.5,10.3,10.0,9.4,0.0,46,68,1000.9,0.000,0.6,112,0.0,2
09.01.2018,14:18,21.5,10.3,10.0,9.3,0.0,46,68,1000.9,0.000,0.5,22,0.0,2
09.01.2018,14:23,21.5,10.1,9.8,9.2,0.0,46,69,1000.9,0.000,0.2,337,0.0,2
09.01.2018,14:28,21.4,10.1,9.8,9.2,0.0,46,69,1000.9,0.000,0.0,135,0.0,2
09.01.2018,14:33,21.4,10.2,9.9,9.3,0.0,46,69,1000.9,0.000,0.0,45,0.0,2
09.01.2018,14:38,21.4,10.2,10.0,9.5,0.0,46,69,1000.9,0.000,0.0,247,0.0,2
09.01.2018,14:43,21.4,10.2,10.0,9.5,0.0,46,69,1000.9,0.000,0.0,247,0.0,2
09.01.2018,14:48,21.4,10.2,10.0,9.6,0.0,46,69,1000.8,0.000,0.0,247,0.0,2
09.01.2018,14:53,21.5,10.3,10.1,9.7,0.0,46,69,1000.8,0.000,0.0,270,0.0,2
09.01.2018,14:58,21.5,10.4,10.2,9.7,0.0,46,69,1000.8,0.000,0.0,225,0.0,2
09.01.2018,15:03,21.5,10.4,10.2,9.8,0.0,46,69,1000.8,0.000,0.0,202,0.0,2
09.01.2018,15:08,21.5,10.4,10.2,9.7,0.0,46,69,1000.8,0.000,0.0,202,0.0,2
09.01.2018,15:13,21.5,10.2,10.0,9.5,0.0,46,69,1000.8,0.000,0.0,202,0.0,2
09.01.2018,15:18,21.5,10.0,9.8,9.3,0.0,46,69,1000.8,0.000,0.0,202,0.0,2
09.01.2018,15:23,21.5,9.9,9.6,9.0,0.0,46,69,1000.8,0.000,0.0,225,0.0,2
09.01.2018,15:28,21.6,9.8,9.4,8.7,0.0,46,70,1000.8,0.000,0.0,225,0.0,2
09.01.2018,15:33,21.6,9.7,9.2,8.1,0.0,46,70,1000.8,0.000,0.0,225,0.0,2
09.01.2018,15:38,21.6,9.4,8.9,7.9,0.0,46,70,1000.8,0.000,0.0,225,0.0,2
09.01.2018,15:43,21.6,9.2,8.5,7.2,0.0,46,71,1000.8,0.000,0.0,225,0.0,2
09.01.2018,15:48,21.6,9.1,8.3,6.8,0.0,46,72,1000.7,0.000,0.0,202,0.0,3
09.01.2018,15:53,21.5,8.8,8.0,6.3,0.0,46,73,1000.7,0.000,0.0,202,0.0,3
09.01.2018,15:58,21.5,8.7,7.8,6.0,0.0,46,73,1000.7,0.000,0.0,180,0.0,3
09.01.2018,16:03,21.5,8.7,7.7,5.6,0.0,46,73,1000.7,0.000,0.0,180,0.0,3
09.01.2018,16:08,21.5,8.4,7.4,5.3,0.0,46,74,1000.9,0.000,0.0,67,0.0,3
09.01.2018,16:13,21.5,8.1,7.1,5.0,0.0,46,74,1000.9,0.000,0.0,90,0.0,3
09.01.2018,16:18,21.5,8.0,6.9,4.7,0.0,46,75,1000.9,0.000,0.0,112,0.0,3
09.01.2018,16:23,21.5,7.7,6.6,4.5,0.0,46,75,1000.9,0.000,0.0,135,0.0,3
09.01.2018,16:28,21.5,7.6,6.5,4.2,0.0,46,75,1000.8,0.000,0.0,135,0.0,3
09.01.2018,16:33,21.5,7.4,6.2,3.8,0.0,46,76,1000.8,0.000,0.0,135,0.0,3
09.01.2018,16:38,21.5,7.1,6.0,3.7,0.0,46,76,1000.8,0.000,0.0,112,0.0,3
09.01.2018,16:43,21.5,7.1,5.9,3.4,0.0,46,76,1000.8,0.000,0.0,135,0.0,3
09.01.2018,16:48,21.5,6.9,5.7,3.2,0.0,46,77,1001.1,0.000,0.0,135,0.0,3
09.01.2018,16:53,21.5,6.6,5.4,3.0,0.0,46,77,1001.1,0.000,0.0,135,0.0,3
09.01.2018,16:58,21.4,6.5,5.2,2.7,0.0,46,77,1001.1,0.000,0.0,135,0.0,3
09.01.2018,17:03,21.4,6.5,5.2,2.6,0.0,46,77,1001.1,0.000,0.0,135,0.0,3
09.01.2018,17:08,21.4,6.5,5.1,2.4,0.0,46,77,1001.0,0.000,0.0,135,0.0,3
09.01.2018,17:13,21.4,6.0,4.8,2.4,0.0,46,79,1001.0,0.000,0.0,135,0.0,3
09.01.2018,17:18,21.4,5.9,4.7,2.3,0.0,46,79,1001.0,0.000,0.0,135,0.0,3
09.01.2018,17:23,21.4,5.9,4.8,2.5,0.0,46,80,1001.0,0.000,0.0,202,0.0,3
09.01.2018,17:28,21.5,5.9,4.8,2.6,0.0,46,80,1001.8,0.000,0.0,180,0.0,3
09.01.2018,17:33,21.5,5.9,4.8,2.7,0.0,46,80,1001.8,0.000,0.0,135,0.0,3
09.01.2018,17:38,21.5,5.8,4.8,2.7,0.0,46,80,1001.8,0.000,0.0,112,0.0,3
09.01.2018,17:43,21.5,5.8,4.8,2.7,0.0,46,80,1001.8,0.000,0.0,112,0.0,3
09.01.2018,17:48,21.5,5.8,4.8,2.8,0.0,46,80,1002.2,0.000,0.0,135,0.0,3
09.01.2018,17:53,21.6,5.7,4.7,2.8,0.0,46,80,1002.2,0.000,0.0,135,0.0,3
09.01.2018,17:58,21.6,5.7,4.8,2.9,0.0,46,80,1002.2,0.000,0.0,135,0.0,3
09.01.2018,18:03,21.6,5.7,4.8,2.9,0.0,46,81,1002.2,0.000,0.0,135,0.0,3
09.01.2018,18:08,21.6,5.7,4.8,3.0,0.0,46,81,1002.5,0.000,0.0,135,0.0,2
09.01.2018,18:13,21.6,5.7,4.8,3.1,0.0,46,81,1002.5,0.000,0.0,112,0.0,2
09.01.2018,18:18,21.6,5.7,4.8,3.1,0.0,46,81,1002.5,0.000,0.0,112,0.0,2
09.01.2018,18:23,21.6,5.7,4.9,3.2,0.0,46,81,1002.5,0.000,0.0,270,0.0,2
09.01.2018,18:28,21.6,5.7,4.9,3.2,0.0,46,81,1002.6,0.000,0.0,270,0.0,2
09.01.2018,18:33,21.6,5.6,4.8,3.2,0.0,46,81,1002.6,0.000,0.0,270,0.0,2
09.01.2018,18:38,21.6,5.6,4.8,3.2,0.0,46,81,1002.6,0.000,0.0,270,0.0,2
09.01.2018,18:43,21.6,5.6,4.8,3.1,0.0,46,81,1002.6,0.000,0.0,135,0.0,2
09.01.2018,18:48,21.5,5.4,4.6,3.0,0.0,46,82,1002.8,0.000,0.0,112,0.0,2
09.01.2018,18:53,21.5,5.3,4.5,2.8,0.0,46,82,1002.8,0.000,0.0,112,0.0,2
09.01.2018,18:58,21.5,5.3,4.4,2.7,0.0,46,82,1002.8,0.000,0.0,135,0.0,2
09.01.2018,19:03,21.5,5.2,4.3,2.6,0.0,46,82,1002.8,0.000,0.0,135,0.0,2
09.01.2018,19:08,21.5,5.1,4.2,2.5,0.0,46,82,1002.8,0.000,0.0,135,0.0,2
09.01.2018,19:13,21.5,5.0,4.1,2.4,0.0,46,83,1002.8,0.000,0.0,135,0.0,2
09.01.2018,19:18,21.5,4.9,4.0,2.2,0.0,46,83,1002.8,0.000,0.0,135,0.0,2
09.01.2018,19:23,21.5,4.9,4.0,2.2,0.0,46,83,1002.8,0.000,0.0,135,0.0,2
09.01.2018,19:25,21.5,4.8,3.8,1.9,0.0,46,83,1002.8,0.000,0.0,135,0.0,2
09.01.2018,19:28,21.5,4.8,3.8,1.8,0.0,46,83,1003.1,0.000,0.0,157,0.0,2
09.01.2018,19:30,21.5,4.8,3.8,1.8,0.0,46,83,1003.1,0.000,0.0,157,0.0,2
09.01.2018,19:33,21.5,4.7,3.7,1.6,0.0,46,83,1003.1,0.000,0.0,135,0.0,2
09.01.2018,19:38,21.6,4.7,3.6,1.4,0.0,46,83,1003.1,0.000,0.0,135,0.0,2
09.01.2018,19:43,21.6,4.4,3.3,1.2,0.0,46,83,1003.1,0.000,0.0,135,0.0,2
09.01.2018,19:46,21.6,4.4,3.3,1.2,0.0,46,83,1003.1,0.000,0.0,135,0.0,2
09.01.2018,19:50,21.6,4.3,3.2,1.1,0.0,46,83,1003.2,0.000,0.0,112,0.0,2
09.01.2018,19:55,21.7,4.2,3.1,0.9,0.0,46,82,1003.2,0.000,0.0,112,0.0,2
09.01.2018,20:00,21.7,4.1,3.0,0.8,0.0,46,83,1003.2,0.000,0.0,135,0.0,2
09.01.2018,20:05,21.8,4.0,2.9,0.7,0.0,47,83,1003.2,0.000,0.0,0,0.0,2
09.01.2018,20:10,21.8,3.9,2.8,0.7,0.0,47,83,1003.5,0.000,0.0,112,0.0,2
09.01.2018,20:15,21.8,3.9,2.8,0.7,0.0,47,83,1003.5,0.000,0.0,135,0.0,2
09.01.2018,20:20,21.8,3.9,2.8,0.7,0.0,47,83,1003.5,0.000,0.0,135,0.0,2
09.01.2018,20:25,21.8,3.8,2.8,0.7,0.0,47,83,1003.5,0.000,0.0,112,0.0,2
09.01.2018,20:30,21.8,3.9,2.8,0.7,0.0,47,83,1003.6,0.000,0.0,112,0.0,2
09.01.2018,20:35,21.8,3.8,2.9,1.1,0.0,47,84,1003.6,0.000,0.0,112,0.0,2
09.01.2018,20:40,21.8,3.9,3.0,1.3,0.0,47,84,1003.6,0.000,0.0,112,0.0,2
09.01.2018,20:45,21.8,4.0,3.3,1.8,0.0,47,85,1003.6,0.000,0.0,135,0.0,2
09.01.2018,20:50,21.9,4.1,3.4,1.9,0.0,47,85,1003.9,0.000,0.0,135,0.0,2
09.01.2018,20:55,21.9,4.2,3.4,1.9,0.0,47,85,1003.9,0.000,0.0,135,0.0,2
09.01.2018,21:00,21.9,4.2,3.5,2.1,0.0,47,86,1003.9,0.000,0.0,135,0.0,2
09.01.2018,21:05,21.9,4.2,3.5,2.1,0.0,47,86,1003.9,0.000,0.0,135,0.0,2
09.01.2018,21:10,21.9,4.3,3.6,2.1,0.0,48,86,1003.9,0.000,0.0,337,0.0,2
09.01.2018,21:15,21.9,4.2,3.5,2.0,0.0,48,86,1003.9,0.000,0.0,315,0.0,2
09.01.2018,21:20,21.9,4.1,3.4,1.9,0.0,48,85,1003.9,0.000,0.0,337,0.0,2
09.01.2018,21:25,21.9,4.0,3.2,1.6,0.0,48,85,1003.9,0.000,0.0,337,0.0,2
09.01.2018,21:30,21.9,3.9,3.1,1.4,0.0,48,85,1003.8,0.000,0.0,315,0.0,2
09.01.2018,21:35,21.9,3.8,2.9,1.1,0.0,48,85,1003.8,0.000,0.0,337,0.0,2
09.01.2018,21:40,22.0,3.7,2.8,1.0,0.0,48,85,1003.8,0.000,0.0,247,0.0,2
09.01.2018,21:45,22.0,3.5,2.6,0.7,0.0,48,85,1003.8,0.000,0.0,247,0.0,2
09.01.2018,21:50,22.0,3.5,2.5,0.6,0.0,48,85,1003.9,0.000,0.0,247,0.0,2
09.01.2018,21:55,22.0,3.3,2.3,0.3,0.0,48,85,1003.9,0.000,0.0,247,0.0,2
09.01.2018,22:00,22.0,3.3,2.3,0.2,0.0,48,85,1003.9,0.000,0.0,247,0.0,2
09.01.2018,22:05,22.0,3.1,2.1,0.0,0.0,48,85,1003.9,0.000,0.0,135,0.0,2
09.01.2018,22:10,22.0,3.1,2.1,0.0,0.0,48,85,1003.8,0.000,0.0,135,0.0,2
09.01.2018,22:15,21.9,3.1,2.1,0.0,0.0,48,85,1003.8,0.000,0.0,135,0.0,2
09.01.2018,22:20,21.9,3.1,2.0,-0.1,0.0,48,85,1003.8,0.000,0.0,135,0.0,2
09.01.2018,22:25,21.9,3.1,2.1,0.1,0.0,48,85,1003.8,0.000,0.0,135,0.0,2
09.01.2018,22:30,21.8,3.1,2.1,0.0,0.0,48,85,1003.6,0.000,0.0,135,0.0,2
09.01.2018,22:35,21.8,3.1,2.1,0.0,0.0,48,85,1003.6,0.000,0.0,135,0.0,2
09.01.2018,22:40,21.9,3.0,2.0,-0.1,0.0,48,85,1003.6,0.000,0.0,180,0.0,2
09.01.2018,22:45,21.9,2.9,1.9,0.0,0.0,48,85,1003.6,0.000,0.0,45,0.0,2
09.01.2018,22:50,22.0,2.9,1.9,-0.1,0.0,48,85,1003.8,0.000,0.0,247,0.0,2
09.01.2018,22:55,22.0,2.8,1.8,-0.2,0.0,48,85,1003.8,0.000,0.0,247,0.0,2
09.01.2018,23:00,22.0,2.7,1.7,-0.3,0.0,48,85,1003.8,0.000,0.0,247,0.0,2
09.01.2018,23:05,22.0,2.6,1.6,-0.5,0.0,48,85,1003.8,0.000,0.0,135,0.0,2
09.01.2018,23:10,22.0,2.5,1.4,-0.7,0.0,48,85,1004.4,0.000,0.0,135,0.0,2
09.01.2018,23:15,22.0,2.4,1.3,-0.9,0.0,48,85,1004.4,0.000,0.0,135,0.0,2
09.01.2018,23:20,22.0,2.3,1.2,-1.0,0.0,48,85,1004.4,0.000,0.0,135,0.0,2
09.01.2018,23:25,22.0,2.3,1.2,-1.1,0.0,48,85,1004.4,0.000,0.0,135,0.0,2
09.01.2018,23:30,22.0,2.3,1.2,-1.1,0.0,48,85,1004.4,0.000,0.0,135,0.0,2
09.01.2018,23:35,22.0,2.2,1.1,-1.1,0.0,48,85,1004.4,0.000,0.0,202,0.0,2
09.01.2018,23:40,22.0,2.1,1.0,-1.1,0.0,48,85,1004.4,0.000,0.0,202,0.0,2
09.01.2018,23:45,22.0,2.1,1.0,-1.1,0.0,48,85,1004.4,0.000,0.0,202,0.0,2
09.01.2018,23:50,21.9,2.2,1.1,-1.0,0.0,48,85,1004.3,0.000,0.0,202,0.0,2
09.01.2018,23:55,21.9,2.4,1.4,-0.6,0.0,48,85,1004.3,0.000,0.0,270,0.0,2
10.01.2018,00:00,21.9,2.4,1.5,-0.4,0.0,48,85,1004.3,0.000,0.0,270,0.0,2
10.01.2018,00:05,21.8,2.4,1.5,-0.3,0.0,48,85,1004.3,0.000,0.0,112,0.0,2
10.01.2018,00:10,21.8,2.4,1.5,-0.3,0.0,48,85,1004.3,0.000,0.0,135,0.0,2
10.01.2018,00:15,21.9,2.4,1.5,-0.3,0.0,48,85,1004.3,0.000,0.0,112,0.0,2
10.01.2018,00:20,21.9,2.4,1.5,-0.2,0.0,48,85,1004.3,0.000,0.0,112,0.0,2
10.01.2018,00:22,21.9,2.4,1.5,-0.2,0.0,48,85,1004.3,0.000,0.0,112,0.0,2
10.01.2018,00:25,21.9,2.4,1.5,-0.2,0.0,48,86,1004.3,0.000,0.0,112,0.0,2
10.01.2018,00:30,21.9,2.3,1.4,-0.3,0.0,48,86,1004.4,0.000,0.0,112,0.0,2
10.01.2018,00:35,21.9,2.3,1.4,-0.4,0.0,48,86,1004.4,0.000,0.0,112,0.0,2
10.01.2018,00:40,21.9,2.3,1.3,-0.6,0.0,48,86,1004.4,0.000,0.0,112,0.0,2
10.01.2018,00:45,21.8,2.2,1.2,-0.7,0.0,48,86,1004.4,0.000,0.0,112,0.0,2
10.01.2018,00:50,21.8,2.2,1.2,-0.8,0.0,47,86,1003.6,0.000,0.0,112,0.0,2
10.01.2018,00:55,21.8,2.1,1.1,-0.8,0.0,47,86,1003.6,0.000,0.0,270,0.0,2
10.01.2018,01:00,21.8,2.1,1.2,-0.6,0.0,47,86,1003.6,0.000,0.0,270,0.0,2
10.01.2018,01:05,21.7,2.1,1.2,-0.7,0.0,47,86,1003.6,0.000,0.0,270,0.0,2
10.01.2018,01:10,21.7,2.1,1.2,-0.7,0.0,47,86,1003.6,0.000,0.0,135,0.0,2
10.01.2018,01:15,21.7,2.0,1.1,-0.8,0.0,47,86,1003.6,0.000,0.0,135,0.0,2
10.01.2018,01:20,21.7,2.0,1.0,-0.9,0.0,47,86,1003.6,0.000,0.0,135,0.0,2
10.01.2018,01:25,21.6,2.0,1.1,-0.8,0.0,47,86,1003.6,0.000,0.0,157,0.0,2
10.01.2018,01:30,21.6,2.0,1.1,-0.7,0.0,47,86,1003.2,0.000,0.0,337,0.0,2
10.01.2018,01:35,21.6,2.0,1.2,-0.4,0.0,47,86,1003.2,0.000,0.0,315,0.0,2
10.01.2018,01:40,21.6,2.0,1.2,-0.4,0.0,47,86,1003.2,0.000,0.0,135,0.0,2